EW8129 Weather Reports


time (UTC)temp
F
wind
direction
speed
knots
gust
knots
rain 1hr
in
rain 24hr
in
rain mn
in
humidity
%
barometer
mb
20260507101404 36 223 0.0 0.0 0.00 0.00 0.00 75 1014.1
20260507100904 36 223 0.0 0.0 0.00 0.00 0.00 74 1014.1
20260507100403 36 223 0.0 0.0 0.00 0.00 0.00 74 1014.0
20260507095903 36 223 0.0 0.0 0.00 0.00 0.00 73 1014.0
20260507094404 37 223 0.0 0.0 0.00 0.00 0.00 71 1014.1
20260507093903 37 223 0.0 0.0 0.00 0.00 0.00 70 1014.1
20260507092903 37 223 0.0 0.0 0.00 0.00 0.00 70 1014.0
20260507090904 37 223 0.0 0.0 0.00 0.00 0.00 70 1013.8
20260507090403 37 223 0.0 0.0 0.00 0.00 0.00 70 1013.7
20260507085904 37 223 0.0 0.0 0.00 0.00 0.00 70 1013.7
20260507084904 37 223 0.0 0.0 0.00 0.00 0.00 69 1013.6
20260507084404 38 223 0.0 0.0 0.00 0.00 0.00 69 1013.6
20260507083404 38 223 0.0 0.0 0.00 0.00 0.00 69 1013.5
20260507082904 38 223 0.0 0.0 0.00 0.00 0.00 69 1013.6
20260507082404 38 223 0.0 0.0 0.00 0.00 0.00 68 1013.6
20260507081904 38 223 0.0 0.0 0.00 0.00 0.00 67 1013.6
20260507081403 39 223 0.0 0.0 0.00 0.00 0.00 66 1013.5
20260507080403 39 223 0.0 0.0 0.00 0.00 0.00 66 1013.4
20260507075904 39 223 0.0 0.0 0.00 0.00 0.00 64 1013.4
20260507075403 39 223 0.0 0.0 0.00 0.00 0.00 64 1013.4
20260507074903 39 223 0.0 0.0 0.00 0.00 0.00 63 1013.4
20260507074403 40 223 0.0 0.0 0.00 0.00 0.00 63 1013.3
20260507073904 40 223 0.0 0.0 0.00 0.00 0.00 63 1013.3
20260507073404 40 223 0.0 0.0 0.00 0.00 0.00 62 1013.3
20260507072904 39 223 0.0 2.6 0.00 0.00 0.00 62 1013.3
20260507072404 39 216 0.0 0.0 0.00 0.00 0.00 63 1013.3
20260507071903 39 216 0.0 0.0 0.00 0.00 0.00 63 1013.2
20260507071404 39 216 0.0 0.0 0.00 0.00 0.00 61 1013.2
20260507070904 39 216 0.0 0.0 0.00 0.00 0.00 61 1013.1
20260507070404 40 216 0.0 0.0 0.00 0.00 0.00 60 1013.1
20260507065904 40 216 0.0 0.0 0.00 0.00 0.00 60 1013.1
20260507065403 40 216 0.0 0.0 0.00 0.00 0.00 60 1013.0
20260507064903 40 216 0.0 0.0 0.00 0.00 0.00 59 1013.0
20260507064404 40 216 0.0 0.0 0.00 0.00 0.00 58 1013.0
20260507063904 40 216 0.0 0.0 0.00 0.00 0.00 58 1012.9
20260507063404 40 216 0.0 0.0 0.00 0.00 0.00 57 1012.9
20260507062904 40 216 0.0 0.0 0.00 0.00 0.00 56 1012.8
20260507062404 40 216 0.0 0.0 0.00 0.00 0.00 56 1012.8
20260507061904 40 216 0.0 0.0 0.00 0.00 0.00 56 1012.9
20260507061403 40 216 0.0 0.0 0.00 0.00 0.00 55 1012.8
20260507060903 40 216 0.0 0.0 0.00 0.00 0.00 55 1012.7
20260507060403 41 216 0.0 0.0 0.00 0.00 0.00 54 1012.6
20260507055404 41 216 0.0 0.0 0.00 0.00 0.00 53 1012.7
20260507054403 41 216 0.0 0.0 0.00 0.00 0.00 52 1012.5
20260507053404 41 216 0.0 0.0 0.00 0.00 0.00 51 1012.5
20260507052904 42 216 0.0 0.0 0.00 0.00 0.00 50 1012.5
20260507051904 42 216 0.0 0.0 0.00 0.00 0.00 49 1012.4
20260507051404 42 216 0.0 0.0 0.00 0.00 0.00 49 1012.4
20260507050904 42 216 0.0 0.0 0.00 0.00 0.00 49 1012.4
20260507050404 42 216 0.0 0.0 0.00 0.00 0.00 48 1012.4
20260507045903 42 216 0.0 0.0 0.00 0.00 0.00 48 1012.4
20260507045403 43 216 0.0 0.0 0.00 0.00 0.00 47 1012.4
20260507044904 43 216 0.0 0.0 0.00 0.00 0.00 47 1012.4
20260507044403 43 216 0.0 0.0 0.00 0.00 0.00 47 1012.3
20260507043904 43 216 0.0 0.0 0.00 0.00 0.00 47 1012.3
20260507043403 43 216 0.0 0.0 0.00 0.00 0.00 46 1012.3
20260507042904 43 216 0.0 0.0 0.00 0.00 0.00 46 1012.2
20260507042403 43 216 0.0 0.0 0.00 0.00 0.00 46 1012.2
20260507041904 43 216 0.0 0.0 0.00 0.00 0.00 45 1012.2
20260507041404 43 216 0.0 0.0 0.00 0.00 0.00 45 1012.2
20260507040904 43 216 0.0 0.0 0.00 0.00 0.00 46 1012.2
20260507035904 43 216 0.0 0.0 0.00 0.00 0.00 45 1012.2
20260507035403 43 216 0.0 0.0 0.00 0.00 0.00 45 1012.2
20260507034903 43 216 0.0 0.9 0.00 0.00 0.00 45 1012.2
20260507034404 44 299 0.0 0.0 0.00 0.00 0.00 44 1012.2
20260507033904 43 299 0.9 5.2 0.00 0.00 0.00 43 1012.1
20260507033403 44 287 1.7 7.8 0.00 0.00 0.00 43 1012.1
20260507032904 44 307 2.6 6.1 0.00 0.00 0.00 43 1012.1
20260507032404 44 233 2.6 5.2 0.00 0.00 0.00 43 1012.1
20260507031904 44 206 0.9 4.3 0.00 0.00 0.00 42 1012.0
20260507031404 44 258 0.0 5.2 0.00 0.00 0.00 42 1011.9
20260507030404 45 189 0.0 0.0 0.00 0.00 0.00 41 1011.8
20260507025404 45 296 2.6 6.1 0.00 0.00 0.00 40 1011.8
20260507024903 45 245 3.5 7.8 0.00 0.00 0.00 40 1011.8
20260507024403 45 227 0.9 5.2 0.00 0.00 0.00 40 1011.7
20260507023903 45 218 0.9 6.1 0.00 0.00 0.00 40 1011.6
20260507023403 45 224 0.0 1.7 0.00 0.00 0.00 40 1011.6
20260507022904 45 257 0.0 0.0 0.00 0.00 0.00 42 1011.6
20260507021903 45 250 2.6 7.0 0.00 0.00 0.00 41 1011.6
20260507020404 45 173 0.0 2.6 0.00 0.00 0.00 42 1011.6
20260507015903 45 157 0.0 0.9 0.00 0.00 0.00 42 1011.6
20260507015403 45 157 0.0 1.7 0.00 0.00 0.00 43 1011.6
20260507014903 45 179 0.0 6.1 0.00 0.00 0.00 43 1011.6
20260507014403 45 189 0.0 4.3 0.00 0.00 0.00 44 1011.6
20260507013904 44 272 0.9 6.1 0.00 0.00 0.00 42 1011.5
20260507013403 44 172 0.0 2.6 0.00 0.00 0.00 44 1011.6
20260507012903 44 210 0.9 6.1 0.00 0.00 0.00 43 1011.5
20260507011903 45 198 2.6 6.1 0.00 0.00 0.00 43 1011.5
20260507011403 45 203 0.0 4.3 0.00 0.00 0.00 42 1011.5
20260507010904 45 246 2.6 6.1 0.00 0.00 0.00 42 1011.5
20260507010404 46 252 0.9 7.8 0.00 0.00 0.00 42 1011.5
20260507005904 46 201 0.9 5.2 0.00 0.00 0.00 41 1011.4
20260507005404 46 225 4.3 7.0 0.00 0.00 0.00 42 1011.4
20260507004903 46 258 2.6 7.0 0.00 0.00 0.00 42 1011.3
20260507004404 46 169 0.0 2.6 0.00 0.00 0.00 42 1011.3
20260507003903 46 211 0.0 4.3 0.00 0.00 0.00 42 1011.4
20260507003404 46 234 0.9 6.1 0.00 0.00 0.00 44 1011.3
20260507002903 45 177 0.0 4.3 0.00 0.00 0.00 43 1011.3
20260507002403 46 198 0.9 5.2 0.00 0.00 0.00 42 1011.3
20260507001904 46 205 0.0 2.6 0.00 0.00 0.00 43 1011.3
20260507001403 45 244 0.9 7.8 0.00 0.00 0.00 43 1011.3
20260507000405 45 236 0.0 4.3 0.00 0.00 0.00 43 1011.3
20260506235904 45 235 0.9 4.3 0.00 0.00 0.00 43 1011.3
20260506235404 45 202 0.9 2.6 0.00 0.00 0.00 43 1011.3
20260506233404 45 237 0.9 6.1 0.00 0.00 0.00 44 1011.3
20260506232904 45 233 0.9 7.0 0.00 0.00 0.00 45 1011.2
20260506232404 45 218 0.9 2.6 0.00 0.00 0.00 44 1011.1
20260506231904 45 237 2.6 5.2 0.00 0.00 0.00 43 1011.2
20260506231404 46 273 1.7 7.0 0.00 0.00 0.00 43 1011.3
20260506230904 45 288 1.7 7.8 0.00 0.00 0.00 44 1011.2
20260506230403 45 260 2.6 7.0 0.00 0.00 0.00 43 1011.2
20260506225903 45 228 2.6 8.7 0.00 0.00 0.00 42 1011.2
20260506225403 46 237 1.7 7.0 0.00 0.00 0.00 44 1011.2
20260506224904 46 234 0.9 1.7 0.00 0.00 0.00 44 1011.2
20260506223904 45 189 0.0 0.9 0.00 0.00 0.00 44 1011.1
20260506223403 45 157 0.0 4.3 0.00 0.00 0.00 46 1011.2
20260506222904 45 240 0.9 6.1 0.00 0.00 0.00 45 1011.2
20260506222404 45 167 0.0 2.6 0.00 0.00 0.00 43 1011.2
20260506221904 45 230 1.7 6.1 0.00 0.00 0.00 45 1011.2
20260506221403 45 263 1.7 7.0 0.00 0.00 0.00 46 1011.2
20260506220904 45 299 1.7 4.3 0.00 0.00 0.00 45 1011.2
20260506220403 45 209 1.7 6.1 0.00 0.00 0.00 45 1011.1
20260506215903 45 203 1.7 4.3 0.00 0.00 0.00 47 1011.2
20260506215403 44 220 0.9 5.2 0.00 0.00 0.00 48 1011.3
20260506214904 44 286 3.5 7.0 0.00 0.00 0.00 49 1011.2
20260506214404 43 280 2.6 7.0 0.00 0.00 0.00 50 1011.2
20260506213904 43 248 0.9 6.1 0.00 0.00 0.00 50 1011.2
20260506213404 43 292 1.7 6.1 0.00 0.00 0.00 51 1011.2
20260506212903 42 228 0.9 4.3 0.00 0.00 0.00 51 1011.2
20260506212403 42 178 0.9 6.1 0.00 0.00 0.00 51 1011.3
20260506211903 42 261 2.6 8.7 0.00 0.00 0.00 50 1011.2
20260506211403 43 271 3.5 7.0 0.00 0.00 0.00 50 1011.2
20260506210904 43 224 0.9 7.0 0.00 0.00 0.00 52 1011.1
20260506210404 42 258 3.5 10.4 0.00 0.00 0.00 50 1011.1
20260506205904 43 256 2.6 7.0 0.00 0.00 0.00 50 1011.1
20260506205404 42 209 2.6 7.8 0.00 0.00 0.00 55 1011.1
20260506204904 42 222 2.6 6.1 0.00 0.00 0.00 54 1011.0
20260506204403 42 207 2.6 5.2 0.00 0.00 0.00 53 1011.1
20260506203904 42 199 0.9 5.2 0.00 0.00 0.00 57 1011.1
20260506203404 41 228 0.9 6.1 0.00 0.00 0.00 57 1011.1
20260506202903 41 240 4.3 7.0 0.00 0.00 0.00 57 1011.2
20260506202404 41 178 0.9 7.8 0.00 0.00 0.00 59 1011.1
20260506201903 41 205 1.7 7.0 0.00 0.00 0.00 58 1011.1
20260506201403 41 282 2.6 6.1 0.00 0.00 0.00 60 1011.1
20260506200404 41 277 1.7 5.2 0.00 0.00 0.00 61 1011.1
20260506195404 40 246 2.6 7.8 0.00 0.00 0.00 63 1011.0
20260506194904 40 272 0.9 5.2 0.00 0.00 0.00 66 1011.1
20260506194404 40 240 1.7 7.0 0.00 0.00 0.00 66 1011.0
20260506193903 40 182 1.7 7.0 0.00 0.00 0.00 66 1011.0
20260506193404 40 261 2.6 10.4 0.00 0.00 0.00 69 1010.9
20260506192903 40 250 2.6 6.1 0.00 0.00 0.00 69 1010.9
20260506192404 39 241 3.5 7.0 0.00 0.00 0.00 69 1010.9
20260506191904 39 277 4.3 7.0 0.00 0.00 0.00 70 1010.9
20260506191404 39 234 2.6 5.2 0.00 0.00 0.00 72 1010.9
20260506190904 39 220 2.6 6.1 0.00 0.00 0.00 75 1010.9
20260506185904 39 216 0.0 1.7 0.00 0.00 0.00 78 1010.8
20260506185403 38 204 1.7 2.6 0.00 0.00 0.00 77 1010.8
20260506184904 38 230 0.9 2.6 0.00 0.00 0.00 80 1010.7
20260506184404 38 202 1.7 4.3 0.00 0.00 0.00 80 1010.7
20260506183903 38 202 1.7 4.3 0.00 0.00 0.00 80 1010.7
20260506183403 38 209 1.7 2.6 0.00 0.00 0.00 81 1010.7
20260506182403 38 199 0.0 2.6 0.00 0.00 0.00 82 1010.7
20260506181904 38 217 1.7 4.3 0.00 0.00 0.00 83 1010.6
20260506181420 38 208 0.9 5.2 0.00 0.00 0.00 83 1010.6
20260506180904 38 215 0.0 6.1 0.00 0.00 0.00 84 1010.6
20260506180404 37 246 2.6 5.2 0.00 0.00 0.00 83 1010.6
20260506175904 37 211 0.0 8.7 0.00 0.00 0.00 84 1010.5
20260506175404 37 270 1.7 5.2 0.00 0.00 0.00 84 1010.5
20260506174903 37 244 1.7 5.2 0.00 0.00 0.00 85 1010.4
20260506174404 37 189 0.0 2.6 0.00 0.00 0.00 86 1010.4
20260506173904 37 222 1.7 5.2 0.00 0.00 0.00 85 1010.4
20260506173404 37 217 0.0 6.1 0.00 0.00 0.00 85 1010.3
20260506172904 37 262 1.7 6.1 0.00 0.00 0.00 86 1010.3
20260506172404 36 236 1.7 6.1 0.00 0.00 0.00 86 1010.3
20260506171904 37 199 0.0 1.7 0.00 0.00 0.00 86 1010.2
20260506171403 37 239 0.9 6.1 0.00 0.00 0.00 86 1010.2
20260506170904 37 189 0.0 0.0 0.00 0.00 0.00 86 1010.2
20260506170404 37 189 0.9 6.1 0.00 0.00 0.00 86 1010.1
20260506165404 37 214 1.7 6.1 0.00 0.00 0.00 86 1010.1
20260506164904 37 224 0.0 2.6 0.00 0.00 0.00 86 1010.1
20260506164404 37 220 1.7 4.3 0.00 0.00 0.00 86 1010.0
20260506163904 37 226 0.0 2.6 0.00 0.00 0.00 86 1010.0
20260506163403 36 216 0.9 4.3 0.00 0.00 0.00 86 1009.9
20260506162903 36 217 1.7 2.6 0.00 0.00 0.00 86 1009.9
20260506161904 37 260 0.9 1.7 0.00 0.00 0.00 86 1009.8
20260506161404 36 198 0.0 4.3 0.00 0.00 0.00 86 1009.8
20260506160903 36 222 0.9 2.6 0.00 0.00 0.00 86 1009.7
20260506160403 37 176 0.0 0.9 0.00 0.00 0.00 87 1009.6
20260506155903 36 206 0.9 5.2 0.00 0.00 0.00 87 1009.6
20260506155403 36 172 0.0 0.0 0.00 0.00 0.00 87 1009.6
20260506154404 36 172 0.9 2.6 0.00 0.00 0.00 87 1009.5
20260506153904 36 177 0.9 1.7 0.00 0.00 0.00 87 1009.5
20260506153404 36 213 0.0 0.0 0.00 0.00 0.00 87 1009.5
20260506152404 36 186 0.9 2.6 0.00 0.00 0.00 87 1009.3
20260506151404 36 210 1.7 5.2 0.00 0.00 0.00 86 1009.2
20260506150903 36 186 0.9 2.6 0.00 0.00 0.00 86 1009.1
20260506145904 36 221 2.6 7.0 0.00 0.00 0.00 86 1009.0
20260506145404 37 234 0.9 4.3 0.00 0.00 0.00 86 1009.0
20260506144903 37 230 0.9 4.3 0.00 0.00 0.00 86 1008.9
20260506144404 37 181 1.7 4.3 0.00 0.00 0.00 86 1008.8
20260506143903 37 212 0.9 1.7 0.00 0.00 0.00 86 1008.8
20260506143403 37 157 1.7 2.6 0.00 0.00 0.00 86 1008.8
20260506142904 37 267 0.0 2.6 0.00 0.00 0.00 87 1008.7
20260506142404 37 222 0.0 4.3 0.00 0.00 0.00 86 1008.7
20260506141904 37 216 0.0 0.0 0.00 0.00 0.00 86 1008.7
20260506141403 37 216 0.9 5.2 0.00 0.00 0.00 87 1008.6
20260506140903 37 182 0.0 1.7 0.00 0.00 0.00 87 1008.6
20260506140404 37 182 0.0 0.9 0.00 0.00 0.00 88 1008.6
20260506135904 37 193 0.9 1.7 0.00 0.00 0.00 88 1008.5
20260506135403 37 202 0.0 0.0 0.00 0.00 0.00 88 1008.5
20260506134904 37 207 0.0 1.7 0.00 0.00 0.00 88 1008.4
20260506134403 38 200 0.0 1.7 0.00 0.00 0.00 88 1008.4
20260506133904 38 200 0.0 0.0 0.00 0.00 0.00 88 1008.4
20260506133404 38 200 0.0 0.0 0.00 0.00 0.00 88 1008.3
20260506132904 38 200 0.0 4.3 0.00 0.00 0.00 88 1008.3
20260506132404 38 228 0.9 1.7 0.00 0.00 0.00 88 1008.2
20260506131904 38 219 0.0 0.0 0.00 0.00 0.00 88 1008.2
20260506131404 38 219 0.0 0.0 0.00 0.00 0.00 88 1008.0
20260506130904 38 219 0.0 0.0 0.00 0.00 0.00 88 1007.9
20260506130403 38 219 0.0 0.0 0.00 0.00 0.00 88 1007.9
20260506125904 38 219 0.0 0.0 0.00 0.00 0.00 88 1007.9
20260506125404 39 219 0.0 0.0 0.00 0.00 0.00 88 1007.8
20260506124903 39 219 0.0 0.0 0.00 0.00 0.00 88 1007.8
20260506124403 39 219 0.0 0.9 0.00 0.00 0.00 88 1007.6
20260506123904 39 224 0.0 0.9 0.00 0.00 0.00 88 1007.6
20260506123403 39 216 0.0 0.0 0.00 0.00 0.00 88 1007.5
20260506122904 39 216 0.0 0.0 0.00 0.00 0.00 88 1007.5
20260506122404 39 216 0.0 0.0 0.00 0.00 0.00 88 1007.5
20260506121903 39 216 0.0 0.0 0.00 0.00 0.00 89 1007.4
20260506121403 39 216 0.0 0.0 0.00 0.00 0.00 89 1007.3
20260506120903 39 216 0.0 0.0 0.00 0.00 0.00 89 1007.3
20260506120404 39 216 0.0 0.0 0.00 0.00 0.00 89 1007.2
20260506115904 39 216 0.0 0.0 0.00 0.00 0.00 88 1007.1
20260506115403 39 216 0.0 0.0 0.00 0.00 0.00 88 1007.1
20260506114904 39 216 0.0 0.0 0.00 0.00 0.00 88 1007.0
20260506114404 39 216 0.0 0.0 0.00 0.00 0.00 88 1007.0
20260506113904 40 216 0.0 0.0 0.00 0.00 0.00 88 1007.0
20260506113403 40 216 0.0 0.0 0.00 0.00 0.00 88 1007.0
20260506112904 40 216 0.0 0.0 0.00 0.00 0.00 88 1006.9
20260506112404 40 216 0.0 0.0 0.00 0.00 0.00 88 1006.8
20260506111904 40 216 0.0 0.0 0.00 0.00 0.00 88 1006.8
20260506111404 40 216 0.0 0.0 0.00 0.00 0.00 88 1006.7
20260506110903 40 216 0.0 0.0 0.00 0.00 0.00 88 1006.6
20260506105904 40 216 0.0 0.0 0.00 0.00 0.00 88 1006.5
20260506105403 40 216 0.0 0.9 0.00 0.00 0.00 88 1006.5
20260506104404 40 185 0.0 0.0 0.00 0.00 0.00 88 1006.3
20260506103904 40 185 0.9 4.3 0.00 0.00 0.00 88 1006.3
20260506103404 40 186 0.0 0.0 0.00 0.00 0.00 87 1006.2
20260506102904 40 186 0.0 0.0 0.00 0.00 0.00 87 1006.2
20260506102403 40 186 0.0 0.0 0.00 0.00 0.00 86 1006.1